Weather History for K4BM - January, 2014

Change the Weather History Date:

Sunday, January 12, 2014

  Actual Average (KAFF) Record (KAFF)
Temperature  
Mean Temperature 14 °F -  
Max Temperature 23 °F 42 °F 55 °F (2000)
Min Temperature 5 °F 18 °F -9 °F (1997)
Degree Days  
Heating Degree Days 51    
Moisture  
Dew Point 9 °F    
Average Humidity 77    
Maximum Humidity 93    
Minimum Humidity 63    
Precipitation  
Precipitation 0.00 in - - ()
Sea Level Pressure  
Sea Level Pressure 29.77 in    
Wind  
Wind Speed 14 mph (WSW)    
Max Wind Speed 22 mph    
Max Gust Speed 40 mph    
Visibility 8 miles    
Events Snow    
Averages and records for this station are not official NWS values.
T = Trace of Precipitation, MM = Missing Value Source: NWS Daily Summary

Daily Weather History Graph

Daily Weather History Graph

Search for Another Location

Airport or City:

Trip Planner

Search our weather history database for the weather conditions in past years. The results will help you decide how hot, cold, wet, or windy it might be!

Date:

Astronomy

Jan. 12, 2014 Rise Set
Actual Time 7:20 AM MST 5:00 PM MST
Civil Twilight 6:51 AM MST 5:30 PM MST
Nautical Twilight 6:17 AM MST 6:03 PM MST
Astronomical Twilight 5:45 AM MST 6:35 PM MST
Moon 2:30 PM MST (1/12) 4:21 AM MST (1/12)
Length of Visible Light 10h 39m
Length of Day
9h 40m
Waxing Gibbous, 90% of the Moon is Illuminated
Jan 12
Waxing Gibbous
Jan 15
Full
Jan 23
Last Quarter
Jan 30
New
Feb 6
First Quarter

Hourly Weather History & Observations

Time (MST) Temp. Windchill Dew Point Humidity Pressure Visibility Wind Dir Wind Speed Gust Speed Precip Events Conditions
12:00 AM 23.0 °F 10.1 °F 12.2 °F 63% 29.85 in 10.0 mi SSW 15.0 mph 27.6 mph N/A   Clear
12:19 AM 23.0 °F 11.1 °F 12.2 °F 63% 29.83 in 10.0 mi SSW 12.7 mph 25.3 mph N/A   Clear
12:40 AM 23.0 °F 10.6 °F 12.2 °F 63% 29.82 in 10.0 mi SSW 13.8 mph 26.5 mph N/A   Clear
12:59 AM 23.0 °F 9.2 °F 12.2 °F 63% 29.81 in 10.0 mi SSW 17.3 mph 34.5 mph N/A   Clear
1:18 AM 23.0 °F 10.1 °F 14.0 °F 68% 29.81 in 10.0 mi SW 15.0 mph 28.8 mph N/A   Clear
1:40 AM 23.0 °F 8.7 °F 14.0 °F 68% 29.79 in 10.0 mi SSW 18.4 mph 33.4 mph N/A   Clear
1:58 AM 23.0 °F 8.7 °F 14.0 °F 68% 29.79 in 10.0 mi SW 18.4 mph 28.8 mph N/A   Clear
2:20 AM 23.0 °F 8.3 °F 14.0 °F 68% 29.78 in 10.0 mi SW 19.6 mph 34.5 mph N/A   Clear
2:40 AM 23.0 °F 9.2 °F 14.0 °F 68% 29.78 in 10.0 mi SSW 17.3 mph 26.5 mph N/A   Clear
3:00 AM 23.0 °F 9.2 °F 15.8 °F 74% 29.75 in 10.0 mi SSW 17.3 mph 27.6 mph N/A   Clear
3:18 AM 21.2 °F 7.8 °F 15.8 °F 80% 29.75 in 10.0 mi SSW 15.0 mph 24.2 mph N/A   Clear
3:38 AM 21.2 °F 6.8 °F 15.8 °F 80% 29.74 in 10.0 mi SSW 17.3 mph 27.6 mph N/A   Clear
3:57 AM 21.2 °F 6.8 °F 17.6 °F 86% 29.73 in 10.0 mi SSW 17.3 mph 29.9 mph N/A   Clear
4:17 AM 21.2 °F 8.3 °F 17.6 °F 86% 29.73 in 10.0 mi SSW 13.8 mph 27.6 mph N/A   Clear
4:38 AM 21.2 °F 7.8 °F 17.6 °F 86% 29.73 in 10.0 mi SSW 15.0 mph 25.3 mph N/A   Clear
4:58 AM 21.2 °F 7.3 °F 15.8 °F 80% 29.72 in 10.0 mi SSW 16.1 mph 27.6 mph N/A   Clear
5:18 AM 21.2 °F 8.9 °F 15.8 °F 80% 29.72 in 10.0 mi SSW 12.7 mph 25.3 mph N/A   Clear
5:40 AM 21.2 °F 8.9 °F 15.8 °F 80% 29.72 in 10.0 mi SSW 12.7 mph 20.7 mph N/A   Clear
5:58 AM 21.2 °F 8.9 °F 15.8 °F 80% 29.73 in 10.0 mi SSW 12.7 mph 19.6 mph N/A   Clear
6:17 AM 21.2 °F 9.5 °F 14.0 °F 74% 29.73 in 10.0 mi South 11.5 mph 20.7 mph N/A   Clear
6:38 AM 21.2 °F 9.5 °F 14.0 °F 74% 29.71 in 10.0 mi SSW 11.5 mph 26.5 mph N/A   Clear
6:58 AM 19.4 °F 7.2 °F 14.0 °F 80% 29.71 in 10.0 mi SSW 11.5 mph 19.6 mph N/A   Clear
7:18 AM 19.4 °F 7.9 °F 14.0 °F 80% 29.71 in 10.0 mi SSW 10.4 mph 17.3 mph N/A   Clear
7:38 AM 19.4 °F 9.5 °F 14.0 °F 80% 29.71 in 10.0 mi SSW 8.1 mph 18.4 mph N/A   Clear
7:58 AM 19.4 °F 7.9 °F 12.2 °F 74% 29.71 in 10.0 mi SSW 10.4 mph 18.4 mph N/A   Clear
8:18 AM 23.0 °F 13.1 °F 14.0 °F 68% 29.71 in 10.0 mi SSW 9.2 mph 19.6 mph N/A   Mostly Cloudy
8:38 AM 21.2 °F 10.1 °F 14.0 °F 74% 29.73 in 10.0 mi SSW 10.4 mph 19.6 mph N/A   Overcast
8:57 AM 19.4 °F 6.6 °F 15.8 °F 86% 29.71 in 2.5 mi SSW 12.7 mph 20.7 mph N/A Snow Light Snow
9:18 AM 23.0 °F 13.9 °F 19.4 °F 86% 29.71 in 10.0 mi SSW 8.1 mph 21.9 mph N/A   Overcast
9:38 AM 21.2 °F 10.1 °F 17.6 °F 86% 29.70 in 5.0 mi SSW 10.4 mph 20.7 mph N/A   Overcast
9:58 AM 19.4 °F 11.5 °F 17.6 °F 93% 29.73 in 0.2 mi West 5.8 mph 27.6 mph N/A Snow Heavy Snow
10:17 AM 14.0 °F -3.4 °F 12.2 °F 93% 29.72 in 0.2 mi NW 19.6 mph 35.7 mph N/A Snow Heavy Snow
10:38 AM 15.8 °F 0.3 °F 10.4 °F 79% 29.72 in 1.2 mi WNW 16.1 mph 33.4 mph N/A Snow Light Snow
10:58 AM 17.6 °F 5.0 °F 10.4 °F 73% 29.72 in 7.0 mi WNW 11.5 mph 33.4 mph N/A   Overcast
11:18 AM 15.8 °F 3.4 °F 10.4 °F 79% 29.71 in 10.0 mi WNW 10.4 mph 27.6 mph N/A   Overcast
11:38 AM 17.6 °F 6.4 °F 10.4 °F 73% 29.71 in 10.0 mi West 9.2 mph 21.9 mph N/A   Overcast
11:58 AM 19.4 °F 12.8 °F 12.2 °F 74% 29.70 in 10.0 mi SW 4.6 mph - N/A   Mostly Cloudy
12:18 PM 19.4 °F 9.5 °F 10.4 °F 68% 29.70 in 10.0 mi West 8.1 mph - N/A   Overcast
12:40 PM 17.6 °F 4.3 °F 10.4 °F 73% 29.70 in 7.0 mi West 12.7 mph 25.3 mph N/A   Mostly Cloudy
12:58 PM 17.6 °F 4.3 °F 8.6 °F 68% 29.71 in 10.0 mi NW 12.7 mph 27.6 mph N/A   Scattered Clouds
1:18 PM 14.0 °F 1.2 °F 10.4 °F 86% 29.72 in 0.5 mi NW 10.4 mph 24.2 mph N/A Snow Light Snow
1:40 PM 14.0 °F -0.2 °F 6.8 °F 73% 29.73 in 2.5 mi NW 12.7 mph 27.6 mph N/A   Haze
1:59 PM 14.0 °F 0.5 °F 5.0 °F 67% 29.73 in 10.0 mi West 11.5 mph 24.2 mph N/A   Scattered Clouds
2:19 PM 14.0 °F 2.9 °F 5.0 °F 67% 29.74 in 10.0 mi West 8.1 mph 17.3 mph N/A   Scattered Clouds
2:39 PM 12.2 °F -1.0 °F 5.0 °F 73% 29.75 in 10.0 mi West 10.4 mph 18.4 mph N/A   Scattered Clouds
2:57 PM 12.2 °F -0.2 °F 5.0 °F 73% 29.77 in 4.0 mi West 9.2 mph 20.7 mph N/A   Haze
3:20 PM 10.4 °F -5.4 °F 6.8 °F 85% 29.77 in 1.2 mi WNW 13.8 mph 21.9 mph N/A Snow Light Snow
3:40 PM 10.4 °F -7.7 °F 5.0 °F 79% 29.78 in 10.0 mi WNW 18.4 mph 40.3 mph N/A   Scattered Clouds
4:00 PM 10.4 °F -5.4 °F 5.0 °F 79% 29.77 in 5.0 mi West 13.8 mph 31.1 mph N/A Snow Light Snow
4:20 PM 8.6 °F -8.3 °F 1.4 °F 73% 29.77 in 10.0 mi West 15.0 mph 34.5 mph N/A   Clear
4:40 PM 8.6 °F -10.5 °F 3.2 °F 79% 29.78 in 7.0 mi West 19.6 mph 27.6 mph N/A   Clear
5:00 PM 6.8 °F -7.8 °F 3.2 °F 85% 29.78 in 10.0 mi West 10.4 mph 25.3 mph N/A   Clear
5:20 PM 6.8 °F -10.0 °F 1.4 °F 79% 29.80 in 10.0 mi West 13.8 mph 28.8 mph N/A   Scattered Clouds
5:38 PM 6.8 °F -7.8 °F 1.4 °F 79% 29.82 in 10.0 mi WNW 10.4 mph 25.3 mph N/A   Scattered Clouds
5:58 PM 6.8 °F -9.3 °F -0.4 °F 72% 29.83 in 10.0 mi WNW 12.7 mph 26.5 mph N/A   Clear
6:20 PM 5.0 °F -8.1 °F 1.4 °F 85% 29.84 in 10.0 mi West 8.1 mph - N/A   Clear
6:40 PM 6.8 °F -4.8 °F -0.4 °F 72% 29.85 in 10.0 mi West 6.9 mph 16.1 mph N/A   Mostly Cloudy
7:00 PM 5.0 °F -8.1 °F 1.4 °F 85% 29.84 in 10.0 mi West 8.1 mph - N/A   Mostly Cloudy
7:20 PM 5.0 °F -8.1 °F 1.4 °F 85% 29.85 in 10.0 mi WNW 8.1 mph - N/A   Overcast
7:37 PM 6.8 °F -7.8 °F 3.2 °F 85% 29.86 in 7.0 mi NW 10.4 mph 19.6 mph N/A   Overcast
7:57 PM 6.8 °F -8.6 °F 3.2 °F 85% 29.86 in 1.8 mi WNW 11.5 mph 23.0 mph N/A Snow Light Snow
8:20 PM 5.0 °F -11.6 °F 1.4 °F 85% 29.85 in 5.0 mi WNW 12.7 mph 23.0 mph N/A   Overcast
8:40 PM 5.0 °F -10.8 °F 1.4 °F 85% 29.86 in 7.0 mi WNW 11.5 mph 25.3 mph N/A   Mostly Cloudy
9:00 PM 5.0 °F -12.3 °F 1.4 °F 85% 29.86 in 7.0 mi West 13.8 mph 25.3 mph N/A   Scattered Clouds
9:20 PM 5.0 °F -11.6 °F -0.4 °F 78% 29.85 in 7.0 mi West 12.7 mph 40.3 mph N/A   Scattered Clouds
9:37 PM 5.0 °F -12.3 °F -0.4 °F 78% 29.85 in 10.0 mi West 13.8 mph 34.5 mph N/A   Clear
10:00 PM 5.0 °F -14.2 °F -4.0 °F 66% 29.85 in 7.0 mi WNW 17.3 mph 33.4 mph N/A   Clear
10:20 PM 5.0 °F - -2.2 °F 72% 29.82 in 5.0 mi North - - N/A   Haze
10:38 PM 5.0 °F - -4.0 °F 66% 29.83 in 4.0 mi North - - N/A   Haze
10:58 PM 5.0 °F - -0.4 °F 78% 29.85 in 5.0 mi North - - N/A   Haze
11:17 PM 5.0 °F -16.2 °F -2.2 °F 72% 29.87 in 10.0 mi NW 21.9 mph - N/A   Clear
11:37 PM 5.0 °F -14.2 °F -0.4 °F 78% 29.89 in 10.0 mi WNW 17.3 mph 29.9 mph N/A   Scattered Clouds
11:57 PM 5.0 °F -14.2 °F -0.4 °F 78% 29.90 in 10.0 mi NW 17.3 mph 34.5 mph N/A   Clear